Location: Austin
(30.3000°N, 97.7500°W)
Time: 07:52:07
(UTC-06:00)

Fermi - Pass Details

Date: 14 November 2025
Orbit: 492 x 503 km, 25.6° (Epoch: 07 December)

Event Time Altitude Azimuth Distance (km) Brightness Sun altitude
Rises 20:12:56 0° 262° (W) 2,575 8.3 -34.2°
Reaches altitude 10° 20:15:15 10° 254° (WSW) 1,693 7.1 -34.7°
Enters shadow 20:15:31 12° 253° (WSW) 1,597 6.9 -34.7°
